Regional Weather Roundup
Issued by NWS

Home | Current Version | Previous Version | Text Only | Print | Product List | Glossary Off
Versions: 1 2 3 4 5 6 7 8 9 10 11 12 13 14 15 16 17 18 19 20 21 22 23 24 25 26 27 28 29 30 31 32 33 34 35 36 37 38 39 40 41 42 43 44 45 46 47 48 49 50

000
ASUS43 KDMX 180207
RWRIA

WEATHER ROUNDUP FOR IOWA
NATIONAL WEATHER SERVICE DES MOINES IA
800 PM CST WED DEC 17 2014

NOTE: "FAIR" INDICATES FEW OR NO CLOUDS BELOW 12,000 FEET WITH NO
SIGNIFICANT WEATHER AND/OR OBSTRUCTIONS TO VISIBILITY.

* - THESE STATIONS ARE NOT NWS STATIONS...THUS NOT UNDER NWS
QUALITY CONTROL.  THEY ALSO DO NOT REPORT WEATHER SUCH
AS PRECIPITATION OR FOG.

IAZ001>003-012>014-020>022-031>034-043>046-180300-
   NORTHWEST IOWA

CITY           SKY/WX    TMP DP  RH WIND       PRES   REMARKS
CARROLL *      CLOUDY    18  16  93 CALM      30.27S
CHEROKEE *     CLEAR     18  16  93 CALM      30.26S
DENISON *      CLOUDY    23  19  86 CALM      30.25S
LE MARS *      CLEAR     16  14  93 CALM      30.27S
ORANGE CITY *  CLEAR     21  18  86 E3        30.25S
SHELDON *      CLEAR     16  14  93 NE7       30.24F WCI   6
SIOUX CITY     PTCLDY    22  15  75 NE5       30.27F WCI  16
SPENCER        CLEAR     14  10  84 N7        30.26F WCI   4
STORM LAKE *   CLEAR     18  14  86 E8        30.25S WCI   7
$$

IAZ055>058-069>071-079>083-090>094-180300-
   SOUTHWEST IOWA

CITY           SKY/WX    TMP DP  RH WIND       PRES   REMARKS
ATLANTIC *     CLOUDY    25  19  80 E3        30.27R
AUDUBON *      CLOUDY    21  16  79 NE3       30.26F
CLARINDA *     CLOUDY    28  21  74 E3        30.30R
COUNCIL BLFS * CLOUDY    27  19  74 E7        30.24F WCI  19
CRESTON *      CLOUDY    25  18  74 NE9       30.26R WCI  15
HARLAN  *      CLOUDY    25  21  86 E5        30.30R WCI  19
LAMONI         CLOUDY    27  18  69 E5        30.27R WCI  22
RED OAK *      CLOUDY    28  21  74 CALM      30.28R
SHENANDOAH *   CLOUDY    28  21  74 CALM      30.29R
$$

IAZ047>049-059>061-072>074-084-180300-
   CENTRAL IOWA

CITY           SKY/WX    TMP DP  RH WIND       PRES   REMARKS
AMES           CLEAR     19  14  81 CALM      30.30R
ANKENY *       CLEAR     19  16  86 CALM      30.29S
CHARITON *     MOCLDY    21  16  79 NE6       30.28S WCI  14
DES MOINES     CLEAR     24  16  71 NE5       30.29R WCI  18
GRINNELL*      CLEAR     18  14  86 NE6       30.28S WCI   9
KNOXVILLE *    CLEAR     23  16  74 CALM      30.28R
MARSHALLTOWN   CLEAR     17  13  84 N5        30.27F WCI  10
PELLA *        CLEAR     19  16  86 CALM      30.31R
PERRY *          N/A     21  18  86 CALM      30.29R
$$

IAZ004>006-015-016-023>025-035-036-180300-
   NORTH CENTRAL IOWA

CITY           SKY/WX    TMP DP  RH WIND       PRES   REMARKS
ALGONA *       CLEAR     16  14  93 N6        30.29F WCI   7
CLARION *      CLEAR     18  18 100 N9        30.26F WCI   6
ESTHERVILLE    PTCLDY    12  10  92 N7        30.28S WCI   1
FORT DODGE *   CLEAR     19  12  73 CALM      30.28R
MASON CITY       N/A     13  10  88 NW6       30.31S WCI   4
FOREST CITY *  CLEAR     16  12  86 N3        30.29S
IOWA FALLS *     N/A     19  16  86 N5        30.27F WCI  13
$$

IAZ007>011-017>019-026>030-037>042-050>054-066-180300-
   NORTHEAST IOWA

CITY           SKY/WX    TMP DP  RH WIND       PRES   REMARKS
CEDAR RAPIDS   PTCLDY    17  13  84 CALM      30.28S
CHARLES CITY * CLOUDY    19  18  93 CALM      30.30S
CLINTON *      CLEAR     16  10  79 N7        30.31F WCI   6
DECORAH *      CLEAR     16  12  86 N6        30.28S WCI   7
DUBUQUE        CLEAR     17  14  88 W3        30.28R
MONTICELLO *   CLEAR     19  18  93 N8        30.28F WCI   9
OELWEIN *      CLEAR     18  14  86 NW6       30.29F WCI   9
WATERLOO       CLEAR     15  13  91 N8        30.29F WCI   4
$$

IAZ064-065-067-068-078-180300-
   EAST CENTRAL IOWA

CITY           SKY/WX    TMP DP  RH WIND       PRES   REMARKS
DAVENPORT      CLEAR     18  14  84 W3        30.30S
IOWA CITY      PTCLDY    22  15  75 NW6       30.31S WCI  14
MT. PLEASANT * PTCLDY    21  18  86 N5        30.30S WCI  15
MUSCATINE *    PTCLDY    21  16  79 W5        30.32R WCI  15
QUAD CITIES    CLEAR     20  15  81 W5        30.30S WCI  13
$$

IAZ062-063-075>077-085>089-095>099-180300-
   SOUTHEAST IOWA

CITY           SKY/WX    TMP DP  RH WIND       PRES   REMARKS
BURLINGTON     CLEAR     23  19  85 N6        30.29S WCI  16
FAIRFIELD *    CLEAR     19  16  86 N6        30.30S WCI  11
FORT MADISON * CLEAR     25  19  80 N6        30.29F WCI  18
KEOKUK *       CLEAR     25  19  80 CALM      30.29S
OSKALOOSA *      N/A     19  16  86 N3        30.30R
CENTERVILLE *  MOCLDY    25  18  74 NE6       30.28R WCI  18
OTTUMWA        CLEAR     20  16  84 N3        30.30R
WASHINGTON *   CLEAR     21  19  93 N5        30.30S WCI  15
$$

ABBREVIATIONS USED IN REMARKS
   TC - TEMPERATURES IN CELSIUS
  WCI - WIND CHILL INDEX
   HX - HEAT INDEX
  VSB - VISIBILITY
$$




USA.gov is the U.S. government's official web portal to all federal, state and local government web resources and services.